Location: Newark
(47.5833°N, 8.1500°E)
Time: 14:42:43
(UTC+00:00)

Tiros 1 - Pass Details

Date: 30 October 2020
Orbit: 630 x 664 km, 48.4° (Epoch: 29 November)

Event Time Altitude Azimuth Distance (km) Brightness Sun altitude
Exits shadow 03:24:14 52° 97° (E) 788 7.8 -28.1°
Drops below altitude 10° 03:27:49 10° 78° (ENE) 2,009 10.7 -27.6°
Sets 03:30:09 0° 76° (ENE) 2,919 11.8 -27.2°
